LEMUR-2-LILLYJO (44396 NORAD) Tracking and Keplerian Element Data

This shows tracking and keplerian element data for the satellite.

Feedback or suggestion? Click here.




ElementValue
Catalog44396
NameLEMUR-2-LILLYJO
Epoch Orbit428
Epoch Day214.89350228
Epoch Year2019
RAAN176.2877
Inclination97.4891
Eccentricity0.0025848
Argument of Perigee144.2179
Mean Anonmoly216.079
Mean Motion15.11825511
Decay Rate8.97E-06
L11 44396U 19038L 19214.89350228 .00000897 00000-0 55909-4 0 9997
L22 44396 97.4891 176.2877 0025848 144.2179 216.0790 15.11825511 4288

Live tracking and technical data element details for LEMUR-2-LILLYJO (NORAD 44396). LEMUR-2-LILLYJO can be tracked NOW for your location showing map with azimuth and elevation plus other details from your city location.

Track the satellite on the map from your city or location and see movement details for azimuth, elevation, latitude, longitude, range, height, and movement on the map or in text.







IsCatalogInMostPopularTable: catalog: 44396, numindb: 14
Update: records affected: 1



GetName: 44396 LEMUR-2-LILLYJO

Hit Count: updated at: Wed, 23 Oct 2019 00:42:48 GMT